Location: Goudex
(43.3760°N, 0.9543°E)
Time: 08:11:46
(UTC+00:00)

Cosmos 1937 Rocket - Pass Details

Date: 20 November 2019
Orbit: 747 x 780 km, 74.0° (Epoch: 09 December)

Event Time Altitude Azimuth Distance (km) Brightness Sun altitude
Exits shadow 05:20:27 25° 311° (NW) 1,476 4.5 -17.1°
Drops below altitude 10° 05:24:14 10° 358° (N) 2,273 5.8 -16.4°
Sets 05:27:00 0° 11° (N) 3,203 6.7 -15.9°
